Location: Guayaquil
(2.1667°S, 79.9000°W)
Time: 08:45:29
(UTC-05:00)

Envisat - Visible Passes

Search period start: 12 December 2018 00:00
Search period end: 22 December 2018 00:00
Orbit: 764 x 766 km, 98.2° (Epoch: 12 December)

Date Brightness Start Highest point End Pass type
(mag) Time Alt. Az. Time Alt. Az. Time Alt. Az.
12 Dec 4.5 18:40:19 10° ESE 18:43:17 16° ENE 18:46:15 10° NE visible
12 Dec 4.8 20:17:38 10° SSW 20:22:03 30° WSW 20:26:26 10° NW visible
13 Dec 2.9 19:40:19 10° S 19:45:25 87° WSW 19:50:30 10° NNW visible
14 Dec 3.6 19:04:15 10° SE 19:08:46 32° ENE 19:13:15 10° NNE visible
14 Dec 5.8 20:44:47 10° SW 20:47:29 14° WSW 20:50:11 10° WNW visible
15 Dec 4.2 20:06:08 10° S 20:10:53 41° WSW 20:15:37 10° NNW visible
16 Dec 2.9 19:29:12 10° SSE 19:34:15 69° ENE 19:39:17 10° N visible
17 Dec 4.0 18:53:33 10° SE 18:57:36 24° ENE 19:01:37 10° NNE visible
17 Dec 5.5 20:32:43 10° SSW 20:36:20 20° WSW 20:39:57 10° WNW visible
18 Dec 3.6 19:54:45 10° S 19:59:44 56° WSW 20:04:41 10° NNW visible
19 Dec 3.1 19:18:10 10° SSE 19:23:05 50° ENE 19:27:58 10° N visible
20 Dec 4.4 18:43:06 10° ESE 18:46:26 18° ENE 18:49:46 10° NE visible
20 Dec 5.0 20:20:58 10° SSW 20:25:11 27° WSW 20:29:24 10° NW visible
21 Dec 3.1 19:43:29 10° S 19:48:34 77° WSW 19:53:37 10° NNW visible
